Brodhead, KY (40409)

06:43 PM EST del 21 Febbraio 2017 (GMT -0500)
Green Fish Hill | | Change Station

Alt. 1214 ft 37.42 °N, 84.33 °W | Updated 14 seconds ago

Coperto
Coperto
66.2 °F
Sembra 66.2 °F
N
0.0
Vento Variabile Vento da Sud
Gusts 5.4 mph

Oggi
Massima -- | Minima -- °F
--% Possibilità di precip.
Ieri
Massima -- | Minima -- °F
Precip. -- in
Pressione 30.01 in
Visibilità 10.0 miglia
Nuvole Molto nuvoloso 5000 ft
Coperto 6500 ft
Punto di rugiada 57 °F
Umidità 73%
Piovosità 0.00 in
Spessore del manto nevoso Non disponibile.
7:19 AM 6:23 PM
Luna calante, 22% visible
METAR KDVK 212335Z AUTO 24005KT 10SM BKN050 OVC065 18/10 A3001 RMK AO2
Pressione 30.01 in
Visibilità 10.0 miglia
Nuvole Molto nuvoloso 5000 ft
Coperto 6500 ft
Punto di rugiada 57 °F
Umidità 73%
Piovosità 0.00 in
Spessore del manto nevoso Non disponibile.
7:19 AM 6:23 PM
Luna calante, 22% visible
METAR KDVK 212335Z AUTO 24005KT 10SM BKN050 OVC065 18/10 A3001 RMK AO2

Get Your Daily Forecast Email!

Thanks for signing up!

Be on the lookout for a verification email in your inbox.

You'll start receiving the daily forecast at 8 AM.

×

10-Day Weather Forecast

Almanac

Astronomia

Feb. 21, 2017 Alba Tramonto
Ora attuale
Crepuscolo civile
Crepuscolo nautico
Crepuscolo astronomico
Luna
Estensione della luce visibile
Lunghezza del giorno
Tomorrow will be .
, % of the Moon is Illuminated

Gli estremi di oggi

State Highs State Lows

Community

WunderPhotos

Upload Photos

1,962,540 foto caricate!

WunderBlog® & News

Nearby

Qualità dell'aria

  Qualità dell'aria Indice AQ Inquinante
Not available.

Profondità neve

Stazione Profondità Altitudine

Attività sismica

Città  Distanza Mag. Data & Ora
Minimo Magnitudo Mostrato è 2.5.

Temperature delle acque costiere

Località Temperatura

Stations

Stazioni meteo nelle vicinanze

Ubicazione della stazione Temp. Raffreddamento del vento Punto di rugiada Umidità Vento Precip. Alt. Aggiornato Tipo
                   

Watches & Warnings

There are currently no watches in effect.